TimeEST,TemperatureF,Dew PointF,Humidity,Sea Level PressureIn,VisibilityMPH,Wind Direction,Wind SpeedMPH,Gust SpeedMPH,PrecipitationIn,Events,Conditions,WindDirDegrees,DateUTC
12:53 AM,35.1,21.0,57,29.94,10.0,South,3.5,-,N/A,,Clear,170,2012-03-05 05:53:00
1:53 AM,34.0,21.0,59,29.93,10.0,South,3.5,-,N/A,,Clear,180,2012-03-05 06:53:00
2:53 AM,33.1,21.9,64,29.89,10.0,Variable,3.5,-,N/A,,Mostly Cloudy,0,2012-03-05 07:53:00
3:53 AM,33.1,21.0,61,29.87,10.0,South,3.5,-,N/A,,Partly Cloudy,180,2012-03-05 08:53:00
4:53 AM,36.0,21.9,57,29.86,10.0,SSW,10.4,-,N/A,,Scattered Clouds,200,2012-03-05 09:53:00
5:53 AM,36.0,24.1,62,29.88,10.0,WNW,4.6,-,N/A,,Mostly Cloudy,300,2012-03-05 10:53:00
6:53 AM,36.0,24.1,62,29.87,10.0,South,5.8,-,0.00,,Mostly Cloudy,190,2012-03-05 11:53:00
7:53 AM,36.0,27.0,70,29.94,10.0,West,4.6,-,N/A,,Mostly Cloudy,270,2012-03-05 12:53:00
8:53 AM,46.0,21.9,39,29.99,10.0,WNW,25.3,35.7,N/A,,Clear,300,2012-03-05 13:53:00
9:53 AM,44.1,21.9,42,30.04,10.0,NW,18.4,35.7,N/A,,Mostly Cloudy,320,2012-03-05 14:53:00
10:53 AM,46.0,23.0,40,30.11,10.0,NW,17.3,31.1,N/A,,Mostly Cloudy,310,2012-03-05 15:53:00
11:53 AM,46.0,19.0,34,30.15,10.0,NW,24.2,35.7,N/A,,Clear,310,2012-03-05 16:53:00
12:53 PM,46.0,19.9,35,30.18,10.0,NNW,16.1,26.5,N/A,,Clear,330,2012-03-05 17:53:00
1:53 PM,46.9,17.1,30,30.20,10.0,NW,15.0,27.6,N/A,,Partly Cloudy,320,2012-03-05 18:53:00
2:53 PM,46.9,16.0,29,30.22,10.0,NW,17.3,25.3,N/A,,Partly Cloudy,310,2012-03-05 19:53:00
3:53 PM,46.9,17.1,30,30.24,10.0,WNW,13.8,23.0,N/A,,Clear,300,2012-03-05 20:53:00
4:53 PM,46.0,15.1,29,30.27,10.0,NNW,11.5,20.7,N/A,,Clear,330,2012-03-05 21:53:00
5:53 PM,44.1,15.1,31,30.31,10.0,NNW,11.5,21.9,N/A,,Clear,330,2012-03-05 22:53:00
6:53 PM,42.1,15.1,34,30.34,10.0,NW,8.1,-,N/A,,Clear,310,2012-03-05 23:53:00
7:53 PM,39.9,15.1,36,30.38,10.0,NW,5.8,-,N/A,,Clear,320,2012-03-06 00:53:00
8:53 PM,39.9,15.1,36,30.40,10.0,NNW,3.5,-,N/A,,Clear,340,2012-03-06 01:53:00
9:53 PM,35.1,17.1,48,30.43,10.0,Calm,Calm,-,N/A,,Clear,0,2012-03-06 02:53:00
10:53 PM,36.0,16.0,44,30.44,10.0,Calm,Calm,-,N/A,,Clear,0,2012-03-06 03:53:00
11:53 PM,32.0,19.0,59,30.45,10.0,Calm,Calm,-,N/A,,Clear,0,2012-03-06 04:53:00